Location: Caledonia
(42.3690°N, 88.8930°W)
Time: 09:40:52
(UTC-05:00)

HST - Visible Passes

Search period start: 24 October 2014 00:00
Search period end: 02 November 2014 23:00
Orbit: 546 x 550 km, 28.5° (Epoch: 23 October)

Date Brightness Start Highest point End Pass type
(mag) Time Alt. Az. Time Alt. Az. Time Alt. Az.
27 Oct 3.3 19:35:42 10° S 19:36:29 10° S 19:37:03 10° SSE visible
28 Oct 3.2 19:27:42 10° SSW 19:29:01 11° S 19:30:11 10° SSE visible
29 Oct 3.2 19:19:59 10° SSW 19:21:33 12° S 19:23:07 10° SSE visible
30 Oct 3.3 19:12:27 10° SSW 19:14:05 12° S 19:15:43 10° SSE visible
31 Oct 3.3 19:05:03 10° SSW 19:06:36 12° S 19:08:10 10° SSE visible
01 Nov 3.4 18:57:47 10° SSW 18:59:07 11° S 19:00:27 10° SSE visible
02 Nov 3.5 17:50:50 10° SSW 17:51:37 10° S 17:52:24 10° S visible
